defense.gouv.fr alexa rank chart, defense.gouv.fr alexa rank daily changes

defense.gouv.fr alexa rank chart, defense.gouv.fr alexa rank daily changes

defense.gouv.fr
Actual rank:
34 801

RANK HISTORY

Date Rank Diff
2017/05/01 34 801 +857
2017/04/30 33 944 +514
2017/04/29 33 430 -17
2017/04/28 33 447 -381
2017/04/27 33 828 -674
2017/04/26 34 502 -501
2017/04/25 35 003 +165
2017/04/24 34 838 +3
2017/04/23 34 835 +195
2017/04/22 34 640 +65
2017/04/21 34 575 -82
2017/04/20 34 657 +167
2017/04/19 34 490 +360
2017/04/18 34 130 -740
2017/04/17 34 870 -301
2017/04/16 35 171 +199
2017/04/15 34 972 +221
2017/04/14 34 751 +288
2017/04/13 34 463 -266
2017/04/12 34 729 -130
2017/04/11 34 859 -128
2017/04/10 34 987 +362
2017/04/09 34 625 -234
2017/04/08 34 859 -204
2017/04/07 35 063 +339
2017/04/06 34 724 -187
2017/04/05 34 911 -95
2017/04/04 35 006 -63
2017/04/03 35 069 -590
2017/04/02 35 659 +457
2017/04/01 35 202 -34
2017/03/31 35 236 -381
2017/03/30 35 617 -386
2017/03/29 36 003 -224
2017/03/28 36 227 +488
2017/03/27 35 739 +761
2017/03/26 34 978 +609
2017/03/25 34 369 +614
2017/03/24 33 755 +321
2017/03/23 33 434 +263
2017/03/22 33 171 -11
2017/03/21 33 182 +31
2017/03/20 33 151 +40
2017/03/19 33 111 +38
2017/03/18 33 073 +420
2017/03/17 32 653 +474
2017/03/16 32 179 +325
2017/03/15 31 854 +280
2017/03/14 31 574 +159
2017/03/13 31 415 +297
2017/03/12 31 118 +535
2017/03/11 30 583 +726
2017/03/10 29 857 +346
2017/03/09 29 511 +342
2017/03/08 29 169 +481
2017/03/07 28 688 +320
2017/03/06 28 368

WIDGET FOR YOUR SITE

DOMAINS WITH THE NEAREST RANK

Domain Rank
tesall.ru 34 796
humankinetics.com 34 797
onetonline.org 34 798
havefunteaching.com 34 799
cargeek.ir 34 800
defense.gouv.fr 34 801
myjewishlearning.com 34 802
lenscrafters.com 34 803
meduniver.com 34 804
task-notes.com 34 805
visaforchina.org 34 806

DOMAINS WITH THE NEAREST RANK BY TLD .gouv.fr

Domain Rank
developpement-durable.gouv.fr 26 757
amendes.gouv.fr 32 421
defense.gouv.fr 34 801
enseignementsup-recherche.gouv.fr 39 159
geoportail.gouv.fr 39 363